Location: Czekanka
(50.4925°N, 19.2643°E)
Time: 12:53:28
(UTC+00:00)

FENGYUN 1C DEB - Pass Details

Date: 19 November 2025
Orbit: 800 x 866 km, 98.6° (Epoch: 04 December)

Event Time Altitude Azimuth Distance (km) Brightness Sun altitude
Rises 05:12:10 0° 4° (N) 3,338 ? -8.3°
Reaches altitude 10° 05:15:28 10° 342° (NNW) 2,395 ? -7.8°
Maximum altitude 05:18:23 15° 308° (NW) 2,038 ? -7.3°
Drops below altitude 10° 05:21:19 10° 274° (W) 2,380 ? -6.9°
Sets 05:24:34 0° 252° (WSW) 3,305 ? -6.4°
